Wind_Speed
16 15 14 12 10 9 10 10 9 9 8 8 8 7 5 6 7 6 7 7 7 7 8 8 9 10 10 10 9 9 9 9 10 10 10 10 10 10 10 11 11 10
18 17 15 14 12 11 11 11 10 9 8 7 7 7 7 7 7 7 7 7 7 7 7 8 9 9 9 9 9 9 9 9 10 10 10 10 10 10 10 11 11 11
19 18 16 15 14 13 12 11 10 10 9 8 8 8 8 8 8 8 7 7 7 7 7 8 9 9 8 9 9 9 8 8 9 10 10 10 11 10 10 10 11 11
19 18 17 15 14 13 13 12 11 10 9 9 9 9 9 9 9 9 8 9 8 8 8 8 8 8 8 9 9 9 8 8 9 10 11 10 11 10 10 11 11 11
18 18 18 17 15 15 14 13 13 12 10 10 10 10 10 10 10 11 10 10 10 10 10 9 9 8 9 9 10 9 9 9 9 10 11 10 10 10 10 10 10 10
18 18 18 18 17 16 15 15 13 13 12 11 11 11 11 11 11 11 12 12 11 12 11 11 10 9 9 10 10 10 10 9 9 10 10 9 9 9 9 10 10 9
18 19 19 19 18 17 16 15 14 13 12 12 12 12 12 12 12 12 13 13 12 12 12 12 11 11 10 11 11 11 10 10 10 10 9 8 8 8 8 9 9 9
19 20 20 20 19 19 18 17 16 14 13 12 12 12 12 12 12 12 13 13 13 13 13 13 12 12 11 12 12 12 11 11 10 10 10 9 8 8 7 8 8 8
20 21 21 21 21 20 19 18 17 15 14 14 13 12 12 12 13 13 13 13 13 13 13 13 13 12 12 12 13 13 12 12 12 12 11 10 10 9 8 8 8 8
21 22 22 22 22 21 20 19 18 17 16 16 14 14 13 13 13 14 14 14 14 13 13 13 13 12 12 13 13 13 13 13 13 13 13 12 12 11 10 10 10 9
19 21 23 23 22 22 21 20 19 18 17 17 16 16 15 15 14 14 15 15 15 14 13 13 13 13 13 13 13 13 13 13 14 14 14 14 14 13 12 12 11 11
19 19 21 22 22 22 22 22 21 20 20 19 18 18 17 17 16 16 15 15 15 14 14 13 13 13 13 13 13 13 13 13 14 15 15 15 15 14 14 13 13 12
22 20 19 20 21 21 21 22 23 22 22 21 20 20 20 19 19 18 17 16 15 14 13 13 12 12 13 13 13 13 13 14 14 15 15 15 16 16 15 14 14 13
25 24 22 20 20 21 22 22 23 23 23 23 22 21 21 21 20 20 19 18 16 15 14 13 13 14 14 13 13 13 13 14 13 13 14 14 15 15 15 15 15 14
27 26 24 22 21 21 22 22 22 23 23 23 23 22 21 21 21 20 19 19 18 16 15 15 15 15 15 15 15 14 14 14 13 13 13 13 13 13 13 14 14 14
27 25 24 23 23 22 22 21 22 22 23 23 22 22 22 22 22 21 21 20 19 18 18 17 17 17 16 16 16 16 16 16 15 15 14 14 14 14 13 13 12 13
26 25 25 24 24 24 23 21 22 23 24 23 23 22 22 22 23 23 23 22 21 20 20 20 19 18 17 17 17 18 18 18 18 17 17 17 17 16 16 15 15 14
21 20 22 24 25 25 25 23 23 24 24 25 24 23 23 23 23 23 23 23 22 21 20 20 20 20 20 20 20 20 21 21 21 21 21 20 20 19 19 18 18 18
13 10 12 16 19 21 23 23 22 22 24 27 27 26 24 24 24 23 22 22 22 22 20 19 20 21 21 23 23 22 22 23 23 24 24 23 23 22 21 21 21 21
10 9 8 8 10 13 15 17 17 18 21 25 26 25 25 25 24 24 22 22 22 23 22 21 21 21 22 24 26 26 25 24 25 25 25 25 25 24 23 22 22 21
5 5 5 5 6 7 8 11 13 14 17 19 20 21 22 23 23 23 22 22 23 24 24 24 24 24 23 23 25 27 27 26 26 26 26 26 26 25 25 24 23 22
6 4 2 1 3 4 6 8 9 9 10 12 13 15 17 18 20 20 20 22 23 24 25 26 26 28 28 27 27 28 27 27 26 26 26 26 26 26 26 25 25 24
8 7 7 5 3 1 2 3 4 4 5 5 7 8 10 12 14 15 16 18 18 20 23 24 24 25 28 30 31 31 29 28 28 27 27 27 27 27 27 27 26 25
7 7 6 6 6 6 5 4 3 2 3 4 5 7 8 10 11 12 13 13 12 12 13 14 15 19 24 28 31 32 31 30 29 29 29 29 29 30 30 29 28 28
7 6 5 5 6 6 7 7 7 6 5 5 5 6 7 8 10 10 10 10 10 8 7 11 15 18 21 24 27 29 30 30 30 30 30 31 31 31 31 30 30 30
5 5 5 4 4 5 5 6 6 6 6 6 7 7 7 7 8 8 9 10 11 12 10 11 15 17 19 20 21 23 25 28 28 29 29 30 30 30 30 29 29 28
Wind_Direction
215 214 212 213 219 226 224 216 211 209 207 202 203 207 204 206 214 214 206 206 208 210 212 214 217 220 222 226 231 233 232 236 241 246 247 247 244 240 240 244 245 248
220 219 216 216 221 226 224 218 215 215 215 213 206 203 205 208 213 212 208 209 209 212 219 223 226 228 229 231 234 237 238 238 240 243 242 243 245 243 243 244 246 248
221 222 218 218 222 225 225 223 221 218 217 217 210 203 204 209 217 217 210 209 208 207 215 222 228 231 231 233 236 241 243 243 243 243 240 239 240 242 244 245 247 248
220 221 220 220 222 226 230 231 227 224 220 217 213 208 206 210 219 223 220 219 216 213 217 221 225 230 232 235 241 244 246 247 246 244 242 239 238 239 242 246 249 251
222 223 222 222 222 225 231 234 231 228 225 222 219 215 214 216 220 225 227 228 227 224 225 227 229 233 235 238 244 247 249 248 244 242 242 240 237 238 242 245 247 250
223 223 223 224 224 226 230 234 234 231 227 226 226 224 224 225 226 227 228 231 233 229 226 229 234 237 238 241 245 248 251 250 246 245 244 241 238 240 243 244 243 245
223 224 224 224 226 227 230 233 234 233 229 227 229 230 231 233 233 232 231 233 235 231 227 230 237 242 244 246 248 249 250 250 249 250 248 245 243 243 243 243 243 243
224 225 226 226 227 229 231 233 234 234 231 229 230 233 236 238 239 239 237 236 236 234 233 235 241 248 250 251 251 253 253 252 252 253 254 252 249 246 245 249 253 252
227 227 228 229 230 231 233 235 236 235 235 234 235 238 241 242 242 244 244 243 242 240 240 242 247 252 255 256 256 257 259 259 258 257 258 257 255 251 248 250 255 258
231 228 228 231 233 234 235 237 238 238 239 239 241 243 246 247 247 248 248 249 249 247 247 250 254 257 258 258 259 261 262 263 262 261 260 259 260 260 257 256 256 257
236 232 230 230 233 235 236 238 240 240 241 242 243 245 247 249 250 250 251 253 254 254 255 257 260 260 258 256 258 262 264 263 262 262 262 261 261 261 260 261 261 262
243 240 236 234 234 235 237 239 242 243 244 246 246 247 249 249 249 250 251 252 254 256 258 260 262 263 261 260 263 265 266 266 264 262 263 263 262 262 260 259 260 262
248 247 244 240 238 239 239 240 242 244 245 247 249 250 250 250 249 249 249 251 253 256 257 259 262 263 263 265 268 270 269 269 268 267 267 266 266 266 264 263 264 264
248 247 245 243 240 239 239 240 241 242 243 244 246 248 250 251 251 250 249 249 251 254 256 259 260 261 262 263 265 268 269 270 272 273 274 274 272 269 268 268 268 269
248 244 243 243 242 239 238 238 240 243 244 244 242 242 245 247 248 248 249 250 251 252 255 258 259 259 260 262 264 265 267 269 273 275 278 279 278 275 273 272 272 272
249 245 244 245 247 245 243 241 242 244 246 246 244 242 241 242 244 245 246 249 253 255 256 257 257 256 256 259 263 265 266 267 269 271 275 277 279 279 278 277 278 278
248 247 245 246 248 249 248 245 244 245 245 247 247 245 243 242 243 245 246 248 251 257 262 262 259 257 257 260 263 264 266 267 267 268 270 272 274 276 277 279 281 282
247 247 246 247 247 248 248 246 246 248 251 251 249 248 247 244 244 245 247 249 249 251 258 264 265 264 264 266 267 267 268 268 269 269 270 270 271 271 272 274 276 278
218 216 226 239 243 243 244 244 246 249 252 251 248 246 246 245 246 246 246 250 252 252 252 257 263 268 270 271 271 269 267 267 267 268 270 270 271 271 271 272 273 275
176 171 177 204 226 234 236 238 243 247 246 245 244 243 244 245 247 248 246 248 252 255 256 257 261 266 269 271 272 270 268 266 264 265 266 267 269 270 271 272 273 275
156 165 172 184 201 219 225 226 233 240 241 241 241 241 242 244 245 247 247 248 251 255 258 260 262 263 264 267 269 268 266 264 263 263 264 265 267 269 271 273 274 275
68 62 67 171 218 224 223 222 229 237 244 249 250 249 249 248 248 250 251 253 255 256 257 260 263 264 264 266 267 266 265 264 263 263 264 265 266 268 270 271 272 273
61 57 59 65 76 124 203 220 237 258 271 276 278 276 272 265 260 258 260 263 266 268 271 274 274 270 264 261 261 262 263 264 264 264 265 265 266 267 268 269 270 271
81 79 82 89 92 84 72 63 50 16 337 318 306 303 303 293 281 271 267 269 275 280 277 269 264 263 260 256 256 257 259 261 262 264 265 265 266 267 267 268 269 271
102 105 105 97 88 82 74 62 55 47 31 9 346 333 327 315 300 286 272 266 265 260 243 232 239 249 253 254 255 257 258 259 261 262 263 265 266 266 267 268 269 269
105 109 112 100 80 73 71 63 53 42 32 30 26 14 358 342 319 291 271 265 262 261 265 265 258 254 251 253 258 260 260 261 261 261 263 264 265 266 267 268 269 270
Height
1597 1598 1600 1601 1602 1604 1605 1606 1607 1608 1609 1610 1611 1612 1613 1614 1615 1616 1617 1618 1618 1619 1620 1621 1621 1622 1623 1624 1624 1625 1626 1626 1627 1627 1627 1628 1628 1628 1628 1629 1629 1629
1596 1598 1599 1600 1602 1603 1605 1606 1607 1608 1609 1610 1611 1612 1613 1614 1615 1615 1616 1617 1618 1619 1620 1620 1621 1622 1623 1623 1624 1625 1625 1626 1626 1626 1627 1627 1627 1627 1627 1628 1628 1628
1595 1597 1598 1600 1601 1603 1604 1605 1606 1607 1608 1609 1610 1611 1612 1613 1614 1615 1616 1617 1617 1618 1619 1620 1621 1621 1622 1623 1623 1624 1624 1625 1625 1625 1626 1626 1626 1626 1627 1627 1627 1627
1594 1596 1598 1599 1601 1602 1604 1604 1605 1606 1607 1608 1609 1610 1611 1612 1613 1614 1615 1616 1617 1618 1618 1619 1620 1621 1621 1622 1622 1623 1624 1624 1624 1625 1625 1625 1625 1626 1626 1626 1626 1626
1594 1595 1597 1598 1600 1601 1602 1603 1604 1605 1606 1607 1608 1609 1610 1611 1612 1613 1614 1615 1616 1617 1618 1619 1619 1620 1621 1621 1622 1622 1623 1623 1624 1624 1624 1624 1625 1625 1625 1625 1625 1625
1593 1594 1595 1597 1598 1600 1601 1602 1604 1605 1606 1607 1608 1609 1610 1610 1611 1612 1613 1614 1615 1616 1617 1618 1619 1619 1620 1621 1621 1621 1622 1622 1623 1623 1623 1624 1624 1624 1624 1624 1624 1624
1591 1592 1594 1595 1596 1598 1599 1600 1602 1603 1605 1606 1607 1608 1609 1609 1610 1611 1612 1613 1614 1615 1616 1617 1618 1619 1620 1620 1620 1621 1621 1622 1622 1622 1622 1622 1623 1623 1623 1623 1623 1623
1590 1591 1592 1594 1595 1596 1598 1599 1601 1602 1604 1605 1606 1607 1608 1608 1609 1610 1611 1612 1613 1614 1615 1616 1617 1618 1619 1619 1619 1620 1620 1621 1621 1621 1621 1621 1621 1622 1622 1622 1622 1622
1589 1590 1591 1593 1594 1595 1597 1598 1600 1601 1602 1604 1605 1606 1607 1607 1608 1609 1610 1611 1612 1613 1614 1615 1616 1617 1618 1618 1618 1619 1619 1620 1620 1620 1620 1620 1620 1621 1621 1621 1621 1621
1587 1589 1590 1592 1593 1595 1596 1597 1599 1600 1601 1602 1603 1604 1605 1606 1607 1608 1609 1609 1610 1611 1612 1614 1615 1615 1616 1617 1617 1618 1618 1618 1619 1619 1619 1619 1619 1620 1620 1620 1619 1619
1586 1587 1589 1590 1592 1593 1595 1596 1598 1599 1600 1601 1602 1603 1604 1605 1606 1606 1607 1608 1609 1610 1611 1612 1613 1614 1614 1615 1616 1616 1616 1617 1617 1617 1617 1618 1618 1618 1618 1618 1618 1618
1585 1586 1588 1589 1590 1592 1593 1595 1596 1598 1599 1599 1600 1601 1602 1603 1604 1604 1605 1606 1607 1608 1609 1610 1611 1612 1613 1613 1614 1615 1615 1615 1616 1616 1616 1616 1616 1616 1616 1617 1617 1617
1584 1585 1586 1588 1589 1590 1592 1593 1594 1596 1597 1598 1599 1599 1600 1601 1602 1602 1603 1604 1605 1606 1607 1608 1609 1610 1611 1612 1612 1613 1613 1614 1614 1614 1614 1615 1615 1615 1615 1615 1615 1615
1581 1582 1584 1585 1586 1587 1589 1590 1592 1593 1594 1596 1597 1597 1598 1599 1599 1600 1601 1602 1603 1604 1605 1606 1607 1608 1609 1610 1611 1611 1612 1612 1612 1613 1613 1613 1613 1614 1614 1614 1614 1614
1578 1580 1582 1583 1583 1584 1585 1587 1589 1591 1592 1593 1594 1595 1595 1596 1597 1598 1599 1600 1601 1602 1603 1604 1605 1606 1607 1608 1609 1610 1610 1611 1611 1611 1612 1612 1612 1612 1612 1613 1613 1613
1575 1578 1581 1581 1581 1582 1583 1585 1586 1588 1590 1592 1592 1593 1593 1594 1595 1595 1596 1597 1599 1600 1601 1602 1602 1604 1605 1606 1607 1608 1609 1609 1610 1610 1610 1610 1610 1611 1611 1611 1611 1611
1573 1575 1578 1579 1579 1580 1581 1582 1584 1585 1588 1590 1590 1591 1591 1591 1592 1593 1594 1595 1596 1597 1598 1599 1601 1602 1603 1604 1605 1606 1607 1608 1608 1608 1609 1609 1609 1609 1609 1609 1609 1609
1571 1572 1575 1576 1577 1578 1579 1580 1581 1583 1586 1588 1588 1589 1589 1589 1589 1590 1591 1592 1593 1594 1595 1596 1598 1600 1601 1602 1603 1604 1605 1605 1606 1606 1606 1607 1607 1607 1607 1607 1607 1607
1570 1571 1573 1574 1575 1575 1576 1577 1579 1581 1584 1585 1586 1586 1586 1587 1587 1588 1588 1590 1590 1592 1593 1593 1595 1597 1599 1600 1601 1602 1602 1603 1603 1603 1603 1604 1604 1604 1605 1605 1605 1605
1569 1569 1570 1571 1572 1572 1573 1575 1576 1579 1582 1583 1583 1583 1583 1584 1585 1585 1585 1586 1587 1589 1590 1591 1592 1594 1596 1598 1599 1600 1600 1600 1600 1600 1600 1600 1601 1602 1602 1602 1603 1603
1568 1568 1568 1569 1570 1571 1572 1574 1576 1579 1580 1580 1579 1579 1580 1581 1582 1582 1583 1584 1585 1586 1587 1588 1590 1592 1593 1595 1596 1597 1597 1597 1597 1597 1597 1597 1598 1599 1599 1599 1600 1600
1567 1568 1567 1567 1569 1571 1573 1574 1576 1578 1578 1577 1577 1577 1577 1578 1578 1579 1580 1581 1582 1583 1584 1586 1587 1589 1591 1594 1595 1595 1595 1595 1594 1594 1594 1594 1595 1595 1596 1596 1596 1596
1567 1568 1568 1569 1571 1573 1574 1574 1575 1576 1576 1576 1575 1575 1575 1575 1576 1576 1577 1578 1579 1579 1581 1583 1584 1585 1589 1593 1594 1594 1594 1593 1592 1592 1591 1591 1591 1592 1592 1592 1593 1593
1568 1569 1570 1572 1573 1573 1573 1573 1573 1574 1574 1574 1573 1573 1573 1573 1573 1573 1573 1574 1574 1575 1578 1581 1583 1585 1588 1590 1591 1591 1591 1590 1590 1589 1589 1588 1588 1588 1589 1589 1590 1590
1571 1571 1572 1572 1572 1572 1572 1572 1572 1572 1571 1571 1571 1571 1571 1571 1572 1572 1571 1572 1573 1575 1578 1581 1582 1585 1587 1587 1587 1588 1588 1587 1587 1587 1586 1585 1585 1585 1586 1586 1586 1587
1571 1571 1571 1571 1570 1571 1571 1571 1571 1571 1570 1570 1570 1570 1569 1570 1572 1573 1572 1573 1574 1576 1578 1580 1582 1584 1584 1584 1585 1585 1585 1584 1584 1583 1583 1582 1582 1582 1582 1583 1583 1583